Ketchikan, AK

4:41 PM AKST on January 23, 2018 (GMT -0900)
Ketchikan International

Weather History for PAKT - December, 2017

Change the Weather History Date:

Friday, December 29, 2017

  Actual Average Record
Temperature  
Mean Temperature 17 °F -  
Max Temperature 24 °F 39 °F 51 °F (1976)
Min Temperature 10 °F 29 °F 4 °F (1968)
Degree Days  
Heating Degree Days 48    
Moisture  
Dew Point 5 °F    
Average Humidity 62    
Maximum Humidity 77    
Minimum Humidity 40    
Precipitation  
Precipitation 0.00 in - - ()
Sea Level Pressure  
Sea Level Pressure 30.09 in    
Wind  
Wind Speed 2 mph (West)    
Max Wind Speed 6 mph    
Max Gust Speed -    
Visibility 10 miles    
Events      
Averages and records for this station are not official NWS values.
T = Trace of Precipitation, MM = Missing Value Source: NWS Daily Summary

Daily Weather History Graph

Daily Weather History Graph

Search for Another Location

Airport or City:

Trip Planner

Search our weather history database for the weather conditions in past years. The results will help you decide how hot, cold, wet, or windy it might be!

Date:

Astronomy

Dec. 29, 2017 Rise Set
Actual Time 8:14 AM AKST 3:24 PM AKST
Civil Twilight 7:28 AM AKST 4:10 PM AKST
Nautical Twilight 6:40 AM AKST 4:58 PM AKST
Astronomical Twilight 5:55 AM AKST 5:42 PM AKST
Moon 1:21 PM AKST (12/29) 3:33 AM AKST (12/29)
Length of Visible Light 8h 41m
Length of Day
7h 09m
Waxing Gibbous, 85% of the Moon is Illuminated
Dec 29
Waxing Gibbous
Jan 1
Full
Jan 8
Last Quarter
Jan 16
New
Jan 24
First Quarter

Hourly Weather History & Observations

Time (AKST) Temp. Windchill Dew Point Humidity Pressure Visibility Wind Dir Wind Speed Gust Speed Precip Events Conditions
12:53 AM 14.0 °F 8.2 °F 5.0 °F 67% 30.15 in 10.0 mi West 3.5 mph - N/A   Clear
1:53 AM 14.0 °F - 3.9 °F 64% 30.16 in 10.0 mi Calm Calm - N/A   Clear
2:53 AM 12.9 °F 6.9 °F 5.0 °F 71% 30.14 in - WSW 3.5 mph - N/A   Clear
3:53 AM 12.9 °F - 5.0 °F 71% 30.14 in - Calm Calm - N/A   Clear
4:53 AM 12.9 °F - 5.0 °F 71% 30.14 in 10.0 mi Calm Calm - N/A   Clear
5:53 AM 10.9 °F - 3.9 °F 73% 30.12 in 10.0 mi Calm Calm - N/A   Clear
6:05 AM 10.9 °F - 5.0 °F 77% 30.11 in 10.0 mi Calm Calm - N/A   Clear
6:53 AM 12.2 °F - 3.2 °F 67% 30.12 in 10.0 mi Calm Calm - N/A   Clear
7:53 AM 12.2 °F 6.1 °F 5.0 °F 73% 30.11 in 10.0 mi WSW 3.5 mph - N/A   Clear
8:53 AM 12.2 °F - 3.2 °F 67% 30.12 in 10.0 mi Calm Calm - N/A   Clear
9:53 AM 19.4 °F 14.3 °F 8.6 °F 63% 30.10 in 10.0 mi West 3.5 mph - N/A   Clear
10:53 AM 23.0 °F 18.4 °F 6.8 °F 50% 30.09 in 10.0 mi NW 3.5 mph - N/A   Clear
11:53 AM 24.8 °F 17.9 °F 5.0 °F 43% 30.07 in 10.0 mi WNW 5.8 mph - N/A   Clear
12:53 PM 23.0 °F 15.8 °F 5.0 °F 46% 30.06 in 10.0 mi WNW 5.8 mph - N/A   Clear
1:53 PM 23.0 °F 17.0 °F 5.0 °F 46% 30.05 in 10.0 mi West 4.6 mph - N/A   Clear
2:53 PM 21.2 °F 14.9 °F 5.0 °F 50% 30.04 in 10.0 mi West 4.6 mph - N/A   Clear
3:53 PM 17.6 °F - 5.0 °F 58% 30.03 in 10.0 mi Calm Calm - N/A   Clear
4:53 PM 14.0 °F 8.2 °F 6.1 °F 71% 30.03 in 10.0 mi WSW 3.5 mph - N/A   Clear
5:53 PM 15.1 °F - 7.0 °F 70% 30.02 in 10.0 mi Calm Calm - N/A   Clear
6:53 PM 10.9 °F - 3.9 °F 73% 30.03 in 10.0 mi Calm Calm - N/A   Clear
7:53 PM 19.0 °F 13.9 °F 5.0 °F 54% 30.04 in 10.0 mi WNW 3.5 mph - N/A   Clear
8:53 PM 17.1 °F 10.0 °F 5.0 °F 59% 30.04 in 10.0 mi WNW 4.6 mph - N/A   Clear
9:53 PM 19.9 °F 12.1 °F -0.9 °F 40% 30.05 in 10.0 mi WNW 5.8 mph - N/A   Clear
10:53 PM 18.0 °F 11.1 °F 5.0 °F 57% 30.07 in 10.0 mi West 4.6 mph - N/A   Clear
11:53 PM 16.0 °F 7.4 °F 6.1 °F 65% 30.10 in 10.0 mi West 5.8 mph - N/A   Clear